Location: Flotzheim
(48.8375°N, 10.8136°E)
Time: 04:42:15
(UTC+00:00)

Okean O Rocket - Pass Details

Date: 23 January 2021
Orbit: 622 x 645 km, 98.2° (Epoch: 26 February)

Event Time Altitude Azimuth Distance (km) Brightness Sun altitude
Rises 17:38:18 0° 193° (SSW) 2,941 5.4 -15.9°
Reaches altitude 10° 17:40:46 10° 206° (SSW) 2,034 4.7 -16.3°
Maximum altitude 17:44:34 28° 265° (W) 1,212 3.9 -16.9°
Drops below altitude 10° 17:48:24 10° 325° (NW) 2,038 4.5 -17.6°
Sets 17:50:53 0° 337° (NNW) 2,948 5.2 -18.0°
